Location: Newark
(30.0333°N, 31.2167°E)
Time: 01:55:25
(UTC+00:00)

Tiros 1 - Pass Details

Date: 02 February 2020
Orbit: 631 x 664 km, 48.4° (Epoch: 21 February)

Event Time Altitude Azimuth Distance (km) Brightness Sun altitude
Rises 05:55:35 0° 212° (SSW) 2,900 10.5 13.1°
Reaches altitude 10° 05:57:57 10° 206° (SSW) 1,996 9.8 13.5°
Maximum altitude 06:02:20 45° 133° (SE) 853 8.9 14.4°
Drops below altitude 10° 06:06:45 10° 61° (ENE) 2,014 10.2 15.2°
Sets 06:09:09 0° 55° (NE) 2,929 10.9 15.6°
